Regional Weather Roundup
Issued by NWS

Home | Current Version | Previous Version | Text Only | Print | Product List | Glossary Off
Versions: 1 2 3 4 5 6 7 8 9 10 11 12 13 14 15 16 17 18 19 20 21 22 23 24 25 26 27 28 29 30 31 32 33 34 35 36 37 38 39 40 41 42 43 44 45 46 47 48 49 50

476
ASUS45 KSLC 061710
RWRUT

UTAH REGIONAL WEATHER ROUNDUP
NATIONAL WEATHER SERVICE SALT LAKE CITY UT
1000 AM MST SAT FEB 06 2016

UTZ001>011-023>025-061800-

NORTHERN UTAH

CITY           SKY/WX    TMP DP  RH WIND       PRES   REMARKS
BRIGHAM CITY   SUNNY     20  17  90 CALM      30.55R
HILL AFB       MOSUNNY   25  10  52 E15G21    30.51S WCI  13
LOGAN          MOSUNNY   18  17  96 CALM      30.51F FOG
OGDEN          MOSUNNY   25  17  72 S8        30.52F WCI  16
PROVO AIRPORT  MOSUNNY   12   9  85 CALM      30.56R HAZE
SALT LAKE CITY MOSUNNY   28  20  71 SE9       30.53F WCI  19
VERNAL         CLOUDY     7   3  84 NE6       30.57R WCI  -3
WENDOVER       MOSUNNY   25  18  74 CALM      30.53F
HEBER CITY     MOSUNNY   12  10  92 CALM      30.53F FOG
WEST JORDAN    SUNNY     27  19  74 S12       30.53S WCI  16

$$

UTZ012>022-026-027-061800-

SOUTHERN/CENTRAL UTAH

CITY           SKY/WX    TMP DP  RH WIND       PRES   REMARKS
BLANDING       MOSUNNY   24  14  67 CALM      30.59R
BRYCE CANYON   MOSUNNY   14   5  67 W6        30.47F WCI   5
CEDAR CITY     MOSUNNY   17  14  88 NW6       30.48R WCI   9
DELTA          CLOUDY     7   4  89 CALM      30.56R
HANKSVILLE     CLOUDY    18  16  93 NW5       30.66S WCI  11
MILFORD        FOG        2   0  91 S8        30.53R VSB<1/4 WCI -12
MOAB/CYNLANDS  CLOUDY    18  15  88 E5        30.61S WCI  11
PRICE          MOSUNNY   15  10  80 CALM      30.53R
ST GEORGE      MOSUNNY   36  21  55 CALM      30.55S
KANAB          SUNNY     37  19  48 NW8       30.53F WCI  31

$$

REGIONAL REPORTS     COLORADO/ARIZONA

CITY           SKY/WX    TMP DP  RH WIND       PRES   REMARKS
CRAIG, CO      CLOUDY     1  -4  79 W7        30.51R WCI -12
GRAND JUNCTION CLOUDY    12  12 100 CALM      30.60S
RIFLE          CLOUDY    10   4  76 CALM      30.59R
MONTROSE       CLOUDY    17   6  62 W3        30.58F
CORTEZ         CLOUDY    23   9  55 E3        30.51F
PAGE, AZ       SUNNY     33  23  66 N3        30.56R
GRAND CANYON   SUNNY     40   1  19 E6        30.46F
KINGMAN        SUNNY     44  32  62 NE5       30.43S
FLAGSTAFF      SUNNY     30  13  49 E8        30.47S WCI  22

$$

REGIONAL REPORTS    NEVADA/IDAHO/WYOMING

CITY           SKY/WX    TMP DP  RH WIND       PRES   REMARKS
LAS VEGAS, NV  SUNNY     47  25  42 E5        30.44S
ELY            PTSUNNY   16   9  74 S16       30.49R WCI   1
ELKO           MOSUNNY   13   8  81 CALM      30.54R
POCATELLO, ID  CLOUDY    20  17  88 CALM      30.45R
BURLEY         CLOUDY    35  25  66 NE3       30.43R
EVANSTON, WY   CLOUDY    16  12  84 SW15      30.42F WCI   1
ROCK SPRINGS   CLOUDY    24  16  71 SW20G30   30.39F WCI  10

$$




USA.gov is the U.S. government's official web portal to all federal, state and local government web resources and services.